Eugene, OR

11:00 PM PST on November 11, 2019 (GMT -0800)
Mahlon Sweet

Weather History for KEUG - September, 2019

Change the Weather History Date:

Sunday, September 29, 2019

  Actual Average Record
Temperature  
Mean Temperature 48 °F 58 °F  
Max Temperature 59 °F 72 °F 87 °F (1993)
Min Temperature 37 °F 44 °F 33 °F (1950)
Degree Days  
Heating Degree Days 17 7  
Month to date heating degree days 91 113  
Since 1 July heating degree days 103 180  
Cooling Degree Days 0 0  
Month to date cooling degree days 45 30  
Year to date cooling degree days 353 238  
Moisture  
Dew Point 41 °F    
Average Humidity 81    
Maximum Humidity 100    
Minimum Humidity 62    
Precipitation  
Precipitation 0.03 in 0.05 in 1.90 in (2013)
Month to date precipitation 4.79 1.23  
Year to date precipitation 28.00 27.24  
Sea Level Pressure  
Sea Level Pressure 29.87 in    
Wind  
Wind Speed 6 mph (SSW)    
Max Wind Speed 18 mph    
Max Gust Speed 23 mph    
Visibility 7 miles    
Events Fog , Rain    
T = Trace of Precipitation, MM = Missing Value Source: NWS Daily Summary

Daily Weather History Graph

Daily Weather History Graph

Search for Another Location

Airport or City:

Astronomy

Sep. 29, 2019 Rise Set
Actual Time 7:08 AM PDT 6:57 PM PDT
Civil Twilight 6:39 AM PDT 7:26 PM PDT
Nautical Twilight 6:05 AM PDT 7:59 PM PDT
Astronomical Twilight 5:31 AM PDT 8:33 PM PDT
Moon 8:06 AM PDT (9/29) 7:59 PM PDT (9/29)
Length of Visible Light 12h 47m
Length of Day
11h 49m
New Moon, 2% of the Moon is Illuminated
Sep 29
New Moon
Oct 5
First Quarter
Oct 13
Full
Oct 21
Last Quarter
Oct 27
New

Hourly Weather History & Observations

Time (PDT) Temp. Windchill Dew Point Humidity Pressure Visibility Wind Dir Wind Speed Gust Speed Precip Events Conditions
12:17 AM 43.0 °F 39.5 °F 41.0 °F 93% 29.88 in 8.0 mi SSW 5.8 mph - N/A   Scattered Clouds
12:24 AM 41.0 °F 36.4 °F 39.9 °F 96% 29.88 in 4.0 mi South 6.9 mph - N/A   Mostly Cloudy
12:54 AM 39.9 °F 35.8 °F 37.9 °F 93% 29.88 in 8.0 mi South 5.8 mph - N/A   Scattered Clouds
1:12 AM 41.0 °F 36.4 °F 39.0 °F 93% 29.89 in 10.0 mi SSW 6.9 mph - N/A   Mostly Cloudy
1:54 AM 39.0 °F 34.8 °F 37.0 °F 93% 29.88 in 9.0 mi SSW 5.8 mph - N/A   Clear
2:01 AM 39.9 °F 36.7 °F 37.9 °F 93% 29.88 in 6.0 mi SSW 4.6 mph - N/A   Scattered Clouds
2:10 AM 39.9 °F 36.7 °F 37.9 °F 93% 29.88 in 3.0 mi SSW 4.6 mph - N/A   Mostly Cloudy
2:37 AM 41.0 °F 39.0 °F 39.0 °F 93% 29.88 in 1.8 mi SW 3.5 mph - N/A   Overcast
2:54 AM 43.0 °F - 39.9 °F 89% 29.90 in 1.8 mi Calm Calm - N/A   Overcast
2:59 AM 43.0 °F 41.3 °F 41.0 °F 93% 29.89 in 2.0 mi SW 3.5 mph - N/A   Overcast
3:22 AM 42.1 °F 39.2 °F 39.9 °F 92% 29.88 in 1.5 mi SSE 4.6 mph - N/A   Overcast
3:29 AM 41.0 °F 36.4 °F 39.0 °F 93% 29.87 in 2.0 mi SSE 6.9 mph - N/A   Overcast
3:45 AM 39.9 °F 36.7 °F 39.0 °F 97% 29.87 in 3.0 mi South 4.6 mph - N/A   Overcast
3:54 AM 39.9 °F 35.8 °F 39.0 °F 97% 29.88 in 4.0 mi South 5.8 mph - N/A   Overcast
4:54 AM 37.0 °F 31.6 °F 36.0 °F 96% 29.87 in 9.0 mi South 6.9 mph - N/A   Mostly Cloudy
5:04 AM 39.0 °F 34.0 °F 37.0 °F 93% 29.87 in 2.5 mi SSW 6.9 mph - N/A   Mostly Cloudy
5:21 AM 39.9 °F 35.8 °F 37.9 °F 93% 29.87 in 2.5 mi SSW 5.8 mph - N/A   Overcast
5:28 AM 39.9 °F 36.7 °F 37.9 °F 93% 29.87 in 3.0 mi SSW 4.6 mph - N/A   Overcast
5:39 AM 39.9 °F 35.8 °F 39.0 °F 97% 29.87 in 9.0 mi South 5.8 mph - N/A   Overcast
5:54 AM 37.9 °F 33.5 °F 37.0 °F 97% 29.87 in 3.0 mi South 5.8 mph - N/A Fog Mostly Cloudy
6:54 AM 39.9 °F 35.1 °F 37.0 °F 89% 29.87 in 6.0 mi SW 6.9 mph - N/A Fog Mostly Cloudy
7:54 AM 42.1 °F 37.1 °F 39.0 °F 89% 29.87 in 10.0 mi South 8.1 mph - N/A   Mostly Cloudy
8:54 AM 44.1 °F 41.5 °F 41.0 °F 89% 29.88 in 10.0 mi South 4.6 mph - N/A   Mostly Cloudy
9:54 AM 46.9 °F - 43.0 °F 86% 29.87 in 10.0 mi South 10.4 mph - N/A   Mostly Cloudy
10:54 AM 51.1 °F - 45.0 °F 80% 29.86 in 10.0 mi SSE 9.2 mph - N/A   Mostly Cloudy
11:54 AM 52.0 °F - 46.0 °F 80% 29.87 in 10.0 mi Calm Calm - N/A   Mostly Cloudy
12:21 PM 52.0 °F - 45.0 °F 77% 29.86 in 10.0 mi SSE 6.9 mph - N/A   Mostly Cloudy
12:54 PM 55.0 °F - 46.0 °F 72% 29.86 in 10.0 mi SSW 5.8 mph - N/A   Mostly Cloudy
1:54 PM 59.0 °F - 46.0 °F 62% 29.84 in 10.0 mi WNW 6.9 mph - N/A   Mostly Cloudy
2:54 PM 55.9 °F - 44.1 °F 64% 29.84 in 10.0 mi Calm Calm - 0.01 in Rain Light Rain
3:54 PM 57.9 °F - 43.0 °F 58% 29.83 in 10.0 mi Variable 3.5 mph - 0.00 in   Overcast
4:54 PM 55.9 °F - 45.0 °F 67% 29.83 in 10.0 mi Variable 3.5 mph - N/A   Overcast
5:54 PM 53.1 °F - 41.0 °F 64% 29.84 in 10.0 mi ESE 6.9 mph - 0.01 in   Overcast
6:54 PM 48.9 °F - 43.0 °F 80% 29.88 in 10.0 mi North 11.5 mph - 0.01 in Rain Light Rain
7:10 PM 48.0 °F - 43.0 °F 83% 29.87 in 5.0 mi North 12.7 mph - 0.01 in Rain Rain
7:50 PM 46.4 °F 40.4 °F 44.6 °F 93% 29.87 in 6.0 mi North 13.8 mph - 0.18 in Rain Light Rain
7:54 PM 46.9 °F - 44.1 °F 90% 29.88 in 7.0 mi North 15.0 mph - 0.18 in Rain Light Rain
8:54 PM 46.9 °F - 44.1 °F 90% 29.90 in 8.0 mi North 10.4 mph - 0.02 in Rain Light Rain
9:41 PM 46.9 °F - 44.1 °F 90% 29.90 in 7.0 mi North 9.2 mph - 0.04 in Rain Light Rain
9:54 PM 46.9 °F - 44.1 °F 90% 29.90 in 7.0 mi North 10.4 mph - 0.05 in Rain Rain
10:01 PM 46.9 °F - 44.1 °F 90% 29.90 in 5.0 mi North 10.4 mph - 0.01 in Rain Light Rain
10:20 PM 46.9 °F - 44.1 °F 90% 29.90 in 7.0 mi North 12.7 mph - 0.06 in Rain Rain
10:54 PM 46.0 °F 40.6 °F 43.0 °F 89% 29.90 in 7.0 mi NNE 11.5 mph - 0.20 in Rain Light Rain
11:54 PM 46.0 °F 42.5 °F 43.0 °F 89% 29.89 in 10.0 mi North 6.9 mph - 0.04 in   Overcast